Tracking 20093 objects as of 14-Dec-2019
HD Live streaming from Space Station
objects crossing your sky now

SL-8 DEB

Track SL-8 DEB now!
10-day predictions


NORAD ID: 21181
Int'l Code: 1991-009AU
Perigee: 1,425.9 km
Apogee: 1,752.7 km
Inclination: 73.9 °
Period: 117.8 minutes
Semi major axis: 7960 km
RCS: 0.0238 m2 (small)
Launch date: February 12, 1991
Source: Commonwealth of Independent States (former USSR) (CIS)
Launch site: PLESETSK MISSILE AND SPACE COMPLEX (PKMTR)

Note: This is SATELLITE DEBRIS
aabbcc
Your satellite tracking list
Your tracking list is empty




NASA's NSSDC Master Catalog

Two Line Element Set (TLE):
1 21181U 91009AU  19347.79713949 -.00000005 +00000-0 +74108-4 0  9995
2 21181 073.9451 161.7467 0205257 092.9146 281.1312 12.22377741283588
Source of the keplerian elements: AFSPC